KONT

LA/Ontario Airport

Airport
ICAO code
KONT
Summary
ICAO Region
NAM
ICAO Territory
Location

Ontario, California,

Coordinates
34° 3' 39" N , 117° 35' 54" W
KCC
Airport BS
Bird Strike
Airport WX
Fog
Metar
Observation
KONT 031753Z 00000KT 10SM FEW140 SCT190 BKN220 13/00 A3025 RMK AO2 SLP240 T01330000 10133 20067 58001
Station
Ontario, Ontario International Airport
Date/Time
2023-02-03 17:53:00
Wind direction
Wind speed
00 kts
Lowest cloud amount
few clouds
Temperature
13.3°C
Dew point
0°C
Humidity
40%
Weather condition
n/a

Description

International airport 20 nm east of the city of Los Angeles.

Climatology

Mediterranean climate or Dry-Summer Subtropical (Köppen climate classification Csa) - Summers are warm to hot and dry. Winters are mild and somewhat rainy. Spring and autumn bring mild days with cool evenings and are generally dry.

Runways

Designator Length Width Surface Rops
08R/26L 3109 46 CON Yes/Yes
08L/26R 3718 46 PEM Yes/Yes

Airport map

Aerial View

SKYbrary Partners:

Safety knowledge contributed by: